[[{"header":{"parameterUnit":"m.s-1","parameterCategory":1,"la1":30.2991,"la2":30.254,"lo1":-89.0895,"lo2":-89.0444,"dy":0.0017,"dx":0.0017,"nx":28,"ny":28,"refTime":"2025-01-24T09:00:00:Z","depth":0,"parameterNumber":2,"parameterNumberName":"U-component_of_WINDS"},"data":[0,0,0,0,0,0,0,0,0,0,0,0,0,0,0,0,0,0,0,0,0,0,0,0,0,0,0,0,0,0,0,0,0,0,0,0,0,0,0,0,0,0,0,0,0,0,0,0,0,0,0,0,0,0,0,0,0,0,2.5893,2.5894,0,2.5974,2.5975,2.5976,2.5951,2.5949,2.5947,2.5946,2.6027,2.603,2.6034,0,0,0,0,0,0,0,0,0,0,0,0,0,2.5714,2.5718,2.5893,2.5894,2.5895,2.5974,2.5975,2.5976,2.5951,2.5949,2.5947,2.5945,2.6026,2.603,2.6035,0,0,0,0,0,0,0,0,0,0,0,0,0,2.5793,2.5719,2.5893,2.5892,2.5893,2.5974,2.5975,2.5977,2.5951,2.5949,2.5946,2.5944,2.6024,2.603,2.6035,2.6122,0,0,2.6052,2.6055,0,0,0,0,0,0,0,0,2.5789,2.58,2.5891,2.5892,2.5893,2.595,2.5942,2.6025,2.5952,2.5929,2.5946,2.5943,2.6003,2.601,2.6031,2.6125,2.6129,2.6053,2.6056,2.6059,2.606,0,0,0,0,0,0,0,2.5784,2.5796,2.5925,2.5892,2.5894,2.5887,2.5895,2.5958,2.5979,2.5931,2.5929,2.5939,2.6003,2.6026,2.6033,2.613,2.6053,2.6058,2.6061,2.6063,2.63,2.6303,0,0,0,0,0,0,2.5778,2.5792,2.5922,2.5927,2.5834,2.5892,2.5902,2.5934,2.5979,2.5983,2.5941,2.5938,2.6017,2.6026,2.6036,2.614,2.6059,2.6064,2.6067,2.6297,2.6301,2.6304,0,0,0,0,0,0,2.5774,2.579,2.5919,2.5859,2.5875,2.5898,2.5935,2.5937,2.596,2.5987,2.599,2.5961,2.6016,2.6028,2.6101,2.6143,2.6067,2.6072,2.6294,2.6298,2.6302,2.635,0,0,0,0,0,0,2.5769,2.5788,2.5822,2.586,2.5879,2.5983,2.5937,2.5941,2.597,2.5966,2.6006,2.601,2.6015,2.6092,2.6106,2.6149,2.6076,2.629,2.6296,2.6301,2.6344,2.6355,2.6364,0,0,0,0,0,2.5763,2.5831,2.5823,2.5839,2.5921,2.5986,2.5996,2.6001,2.5973,2.6007,2.6024,2.6009,2.6136,2.61,2.6116,2.6161,2.6287,2.6294,2.63,2.634,2.6353,2.6364,0,0,0,0,0,0,2.5795,2.5836,2.5828,2.5911,2.5945,2.5981,2.6024,2.6014,2.6057,2.6051,2.6055,2.6064,2.6139,2.6157,2.6116,2.6247,2.6208,2.6217,2.6232,2.6245,2.6255,2.6248,2.6081,0,0,0,0,0,2.5813,2.5863,2.5895,2.5965,2.5983,2.6001,2.6029,2.603,2.6065,2.6079,2.6102,2.6136,2.6184,2.6216,2.6261,2.6347,2.6356,2.6386,2.6396,2.6404,2.6412,2.6459,2.6473,2.6325,2.6325,2.6325,0,0,2.5848,2.5876,2.5907,2.5973,2.5999,2.605,2.6013,2.6068,2.6106,2.6087,2.6158,2.6176,2.6215,2.6295,2.6331,2.6312,2.6455,2.6412,2.6418,2.6422,2.6468,2.6482,2.6494,2.633,2.6329,2.6328,0,0,2.5939,2.5965,2.6027,2.6055,2.6096,2.6108,2.6123,2.6161,2.6172,2.6243,2.6231,2.6276,2.6358,2.6386,2.6411,2.6515,2.6502,2.6529,2.6581,2.6627,2.6639,2.6649,2.6686,2.6699,2.6538,2.6538,2.6538,0,2.5977,2.6055,2.606,2.6117,2.6146,2.6133,2.6195,2.6222,2.6275,2.6296,2.6274,2.6378,2.6403,2.6489,2.6515,2.6536,2.6553,2.6524,2.6637,2.6647,2.6657,2.6692,2.6706,2.6541,2.6541,2.654,2.654,0,2.61,2.6154,2.6199,2.6252,2.6286,2.6346,2.636,2.6394,2.6392,2.6406,2.6479,2.6509,2.6561,2.6581,2.658,2.6669,2.6656,2.6635,2.6596,2.6674,2.6707,2.6721,2.6545,2.6544,2.6543,2.6543,0,0,2.6213,2.6269,2.6286,2.631,2.6355,2.6397,2.6456,2.6507,2.6537,2.6575,2.6624,2.6695,2.6677,2.6706,2.6707,2.6748,2.6828,2.6723,2.6724,2.6741,2.6928,2.6943,2.6958,2.682,2.6823,2.6825,2.6925,0,2.6307,2.6412,2.6419,2.6513,2.6563,2.6552,2.6603,2.6637,2.6652,2.6696,2.6712,2.6762,2.6735,2.6752,2.6792,2.681,2.6866,2.6803,2.6866,2.6868,2.6856,2.6976,2.6991,2.7084,2.6938,2.694,2.6942,0,2.6431,2.6474,2.6574,2.6613,2.6634,2.668,2.6729,2.6771,2.6809,2.6817,2.685,2.6846,2.6907,2.6866,2.695,2.6907,2.6933,2.6946,2.695,2.6956,2.6909,2.6984,2.7113,2.7127,2.6962,2.696,2.6959,0,2.6503,2.6586,2.6656,2.6678,2.6725,2.6758,2.6779,2.6814,2.6845,2.6887,2.6907,2.6956,2.6982,2.702,2.7029,2.6998,2.7113,2.7073,2.7121,2.7121,2.7145,2.7143,2.728,2.7163,2.7163,2.7162,2.7162,0,2.6608,2.6669,2.669,2.6733,2.6802,2.6809,2.6877,2.6896,2.6928,2.6974,2.6967,2.7011,2.7021,2.7068,2.7075,2.7144,2.7156,2.7164,2.7165,2.7164,2.7163,2.7181,2.7175,2.7166,2.7165,2.7164,2.7164,0,2.6699,2.6716,2.6792,2.6831,2.6842,2.6891,2.6924,2.6966,2.6981,2.704,2.7054,2.7077,2.7131,2.7145,2.7209,2.7214,2.7295,2.729,2.7282,2.7282,2.7329,2.7325,2.7482,2.7503,2.7372,2.7374,2.7375,0,2.6765,2.6812,2.6857,2.6888,2.6911,2.6961,2.6993,2.7002,2.7036,2.7083,2.7119,2.7172,2.7215,2.7302,2.7324,2.7373,2.7369,2.7421,2.7377,2.7375,2.737,2.7367,2.7372,2.7429,2.7431,2.7432,2.7433,0,2.6879,2.6885,2.6931,2.6981,2.702,2.7059,2.7097,2.7123,2.7137,2.7175,2.7231,2.7264,2.7331,2.7384,2.7434,2.7455,2.7447,2.7447,2.7461,2.746,2.7454,2.7458,2.7305,2.7443,2.7442,2.7441,2.7441,2.744,2.696,2.7001,2.704,2.7092,2.7121,2.7157,2.7198,2.7219,2.7265,2.732,2.7323,2.7384,2.7421,2.7487,2.7512,2.7559,2.7543,2.7563,2.7568,2.7573,2.7577,2.7447,2.7568,2.7568,2.7568,2.7568,2.7567,0,2.7073,2.7098,2.7146,2.7199,2.7241,2.723,2.7272,2.7307,2.736,2.7396,2.7439,2.7503,2.7555,2.7582,2.7633,2.7666,2.7664,2.7679,2.7677,2.7682,2.7588,2.7571,2.768,2.768,2.768,2.768,2.768,2.768,2.7137,2.7208,2.7218,2.7303,2.7327,2.7387,2.7412,2.7445,2.7473,2.7546,2.7589,2.7606,2.7639,2.7693,2.774,2.7746,2.7765,2.7783,2.7788,2.77,2.7688,2.7677,2.7661,2.7787,2.7787,2.7877,2.7878,2.7878]},{"header":{"parameterUnit":"m.s-1","parameterCategory":1,"la1":30.2991,"la2":30.254,"lo1":-89.0895,"lo2":-89.0444,"dy":0.0017,"dx":0.0017,"nx":28,"ny":28,"refTime":"2025-01-24T09:00:00:Z","depth":0,"parameterNumber":3,"parameterNumberName":"V-component_of_WINDS"},"data":[0,0,0,0,0,0,0,0,0,0,0,0,0,0,0,0,0,0,0,0,0,0,0,0,0,0,0,0,0,0,0,0,0,0,0,0,0,0,0,0,0,0,0,0,0,0,0,0,0,0,0,0,0,0,0,0,0,0,-4.811,-4.8112,0,-4.8271,-4.8273,-4.8275,-4.8232,-4.8229,-4.8226,-4.8223,-4.8385,-4.8392,-4.8399,0,0,0,0,0,0,0,0,0,0,0,0,0,-4.7761,-4.7768,-4.811,-4.8112,-4.8114,-4.8271,-4.8273,-4.8275,-4.8233,-4.8229,-4.8225,-4.8222,-4.8382,-4.8391,-4.8399,0,0,0,0,0,0,0,0,0,0,0,0,0,-4.7916,-4.777,-4.8109,-4.8112,-4.8114,-4.827,-4.8273,-4.8276,-4.8234,-4.8229,-4.8224,-4.822,-4.8379,-4.839,-4.8401,-4.8564,0,0,-4.8434,-4.8439,0,0,0,0,0,0,0,0,-4.7907,-4.7929,-4.8109,-4.8112,-4.8114,-4.8227,-4.8209,-4.8372,-4.8235,-4.8188,-4.8223,-4.8217,-4.8336,-4.835,-4.8391,-4.8571,-4.8578,-4.8435,-4.8442,-4.8446,-4.8449,0,0,0,0,0,0,0,-4.7897,-4.7922,-4.8173,-4.8112,-4.8115,-4.8103,-4.812,-4.824,-4.8287,-4.8192,-4.8189,-4.8209,-4.8336,-4.838,-4.8394,-4.8581,-4.8435,-4.8444,-4.8451,-4.8455,-4.8902,-4.8907,0,0,0,0,0,0,-4.7885,-4.7913,-4.8168,-4.8178,-4.7997,-4.8113,-4.8132,-4.8196,-4.8285,-4.8294,-4.8213,-4.8206,-4.8364,-4.8381,-4.84,-4.8596,-4.8446,-4.8456,-4.8463,-4.8896,-4.8903,-4.8908,0,0,0,0,0,0,-4.7877,-4.7908,-4.8162,-4.8045,-4.8077,-4.8125,-4.8196,-4.8201,-4.8245,-4.8301,-4.8309,-4.825,-4.8361,-4.8384,-4.8523,-4.8601,-4.8461,-4.8471,-4.889,-4.8898,-4.8906,-4.899,0,0,0,0,0,0,-4.7868,-4.7906,-4.7969,-4.8047,-4.8083,-4.8285,-4.8201,-4.8208,-4.8265,-4.8258,-4.8338,-4.8346,-4.8359,-4.8507,-4.8534,-4.8613,-4.848,-4.8883,-4.8894,-4.8903,-4.898,-4.9,-4.9016,0,0,0,0,0,-4.7855,-4.7986,-4.7973,-4.8004,-4.8164,-4.8289,-4.831,-4.8322,-4.8271,-4.8335,-4.837,-4.8344,-4.8588,-4.8522,-4.8552,-4.8635,-4.8878,-4.8891,-4.8902,-4.8972,-4.8996,-4.9016,0,0,0,0,0,0,-4.7916,-4.7996,-4.7983,-4.8143,-4.821,-4.8282,-4.8363,-4.8347,-4.8429,-4.8419,-4.843,-4.8448,-4.859,-4.8626,-4.8551,-4.8797,-4.8725,-4.8744,-4.8768,-4.8791,-4.8809,-4.8797,-4.8489,0,0,0,0,0,-4.7948,-4.8044,-4.8109,-4.8244,-4.8278,-4.8315,-4.837,-4.8374,-4.8443,-4.8471,-4.8516,-4.8583,-4.8675,-4.8735,-4.8822,-4.8985,-4.9001,-4.9057,-4.9075,-4.9089,-4.9105,-4.9192,-4.9218,-4.8948,-4.8948,-4.8947,0,0,-4.8015,-4.8071,-4.8131,-4.8257,-4.831,-4.8408,-4.8339,-4.8446,-4.8518,-4.8486,-4.8621,-4.8657,-4.8732,-4.8883,-4.8952,-4.8918,-4.9183,-4.9105,-4.9116,-4.9124,-4.9207,-4.9233,-4.9255,-4.8956,-4.8954,-4.8953,0,0,-4.8187,-4.824,-4.8358,-4.8411,-4.8491,-4.8515,-4.8543,-4.8618,-4.864,-4.8775,-4.8753,-4.8838,-4.8996,-4.905,-4.9099,-4.929,-4.9268,-4.9318,-4.9411,-4.9496,-4.9517,-4.9536,-4.9604,-4.9628,-4.9333,-4.9333,-4.9334,0,-4.826,-4.8409,-4.842,-4.8529,-4.8584,-4.8561,-4.8679,-4.873,-4.8834,-4.8872,-4.8832,-4.9029,-4.9078,-4.9241,-4.9288,-4.9328,-4.9359,-4.9309,-4.9514,-4.9533,-4.9551,-4.9615,-4.964,-4.9339,-4.9338,-4.9338,-4.9337,0,-4.8494,-4.8597,-4.8682,-4.8784,-4.8849,-4.8962,-4.8989,-4.9053,-4.905,-4.9077,-4.9214,-4.9272,-4.937,-4.9409,-4.9407,-4.9571,-4.9547,-4.9511,-4.9439,-4.9582,-4.9642,-4.9667,-4.9347,-4.9345,-4.9343,-4.9342,0,0,-4.871,-4.8816,-4.8847,-4.8892,-4.8978,-4.9057,-4.9168,-4.9265,-4.9319,-4.9391,-4.9483,-4.9616,-4.9583,-4.9637,-4.9642,-4.9716,-4.9862,-4.967,-4.9672,-4.9703,-5.0045,-5.0072,-5.01,-4.9848,-4.9853,-4.9857,-5.0038,0,-4.8889,-4.9086,-4.9099,-4.9276,-4.937,-4.9348,-4.9445,-4.9507,-4.9534,-4.9617,-4.9646,-4.9741,-4.969,-4.9722,-4.9795,-4.9829,-4.9931,-4.9816,-4.9933,-4.9937,-4.9915,-5.0132,-5.0161,-5.033,-5.0062,-5.0066,-5.0069,0,-4.9126,-4.9205,-4.9393,-4.9464,-4.9503,-4.959,-4.9679,-4.9759,-4.9828,-4.9842,-4.9903,-4.9896,-5.0008,-4.9932,-5.0085,-5.0007,-5.0055,-5.0079,-5.0086,-5.0097,-5.0012,-5.0149,-5.0384,-5.041,-5.0107,-5.0104,-5.0101,0,-4.9264,-4.9418,-4.9549,-4.9589,-4.9675,-4.9736,-4.9775,-4.9839,-4.9896,-4.9973,-5.001,-5.0098,-5.0147,-5.0215,-5.0231,-5.0175,-5.0384,-5.031,-5.0398,-5.0398,-5.0444,-5.044,-5.069,-5.0475,-5.0475,-5.0474,-5.0474,0,-4.9463,-4.9578,-4.9612,-4.9693,-4.9821,-4.9833,-4.9959,-4.9993,-5.005,-5.0136,-5.0122,-5.0202,-5.0219,-5.0303,-5.0316,-5.0441,-5.0463,-5.0476,-5.0479,-5.0478,-5.0476,-5.051,-5.0498,-5.0481,-5.048,-5.0478,-5.0477,0,-4.9639,-4.9667,-4.9809,-4.9879,-4.9899,-4.999,-5.0048,-5.0125,-5.015,-5.0259,-5.0285,-5.0324,-5.0422,-5.0445,-5.0561,-5.057,-5.0717,-5.0708,-5.0694,-5.0693,-5.078,-5.0771,-5.1059,-5.1097,-5.0858,-5.086,-5.0862,0,-4.9765,-4.9853,-4.9932,-4.9989,-5.003,-5.0122,-5.018,-5.0195,-5.0255,-5.0339,-5.0406,-5.0502,-5.0579,-5.0735,-5.0773,-5.0861,-5.0854,-5.0949,-5.0867,-5.0863,-5.0855,-5.0849,-5.0857,-5.0964,-5.0967,-5.0969,-5.0971,0,-4.9984,-4.9993,-5.0077,-5.0167,-5.0236,-5.0307,-5.0375,-5.0422,-5.0445,-5.0514,-5.0614,-5.0674,-5.0792,-5.0887,-5.0975,-5.1012,-5.0996,-5.0996,-5.1021,-5.1021,-5.1009,-5.1016,-5.0736,-5.099,-5.0988,-5.0986,-5.0985,-5.0985,-5.0138,-5.0215,-5.0282,-5.0377,-5.0429,-5.0492,-5.0567,-5.0601,-5.0685,-5.0783,-5.0786,-5.0895,-5.0959,-5.1076,-5.1119,-5.1203,-5.1174,-5.121,-5.1219,-5.1228,-5.1235,-5.0996,-5.1219,-5.1218,-5.1218,-5.1218,-5.1217,0,-5.0356,-5.0398,-5.0485,-5.058,-5.0653,-5.0631,-5.0704,-5.0767,-5.0863,-5.0925,-5.1002,-5.1115,-5.1207,-5.1252,-5.1342,-5.14,-5.1394,-5.1423,-5.1419,-5.1428,-5.1257,-5.1226,-5.1426,-5.1426,-5.1426,-5.1426,-5.1426,-5.1426,-5.0479,-5.0607,-5.0623,-5.0777,-5.0817,-5.0924,-5.0968,-5.1025,-5.1074,-5.1203,-5.1279,-5.1307,-5.1362,-5.1456,-5.1538,-5.1549,-5.1582,-5.1615,-5.1622,-5.1461,-5.144,-5.142,-5.1391,-5.1622,-5.1622,-5.1785,-5.1787,-5.1788]}]]